Location: München
(48.1351°N, 11.5820°E)
Time: 12:02:02
(UTC+02:00)

ISS - Pass Details

Date: 02 June 2020
Orbit: 417 x 421 km, 51.6° (Epoch: 07 July)

Event Time Altitude Azimuth Distance (km) Brightness Sun altitude
Rises 22:09:42 0° 284° (WNW) 2,377 1.1 -8.6°
Reaches altitude 10° 22:12:29 10° 259° (W) 1,508 -0.5 -8.9°
Maximum altitude 22:14:25 15° 224° (SW) 1,257 -1.4 -9.1°
Drops below altitude 10° 22:16:22 10° 189° (S) 1,503 -1.3 -9.3°
Enters shadow 22:17:05 - 180° (S) 1,690 -1.1 -9.4°
